SCP
0 0 0 0 0 0 0 0 0 0 0 0 0 0 0 0 0 0 0 0 0 0 0 0 0 0 0 0 0 0 0 0 0 0 0 0 0 0 1 1 1 0 1
0 0 0 0 0 0 0 0 0 0 0 0 0 0 0 0 0 0 0 0 0 0 0 0 0 0 0 0 0 0 0 0 0 0 0 0 0 0 1 1 1 1 1
0 0 0 0 0 0 0 0 0 0 0 0 0 0 0 0 0 0 0 0 0 0 0 0 0 0 0 0 0 0 0 0 0 0 0 0 0 0 0 1 1 1 1
0 0 0 0 0 0 0 0 0 0 0 0 0 0 0 0 0 0 0 0 0 0 0 0 0 0 0 0 0 0 0 0 0 0 0 0 0 0 0 0 1 1 1
0 0 0 0 0 0 0 0 0 0 0 0 0 0 0 0 0 0 0 0 0 0 0 0 0 0 0 0 0 0 0 0 0 0 0 0 0 0 0 0 0 1 1
0 0 0 0 0 0 0 0 0 0 0 0 0 0 0 0 0 0 0 0 0 0 0 0 0 0 0 0 0 0 0 0 0 0 0 0 0 0 0 0 0 0 0
0 0 0 0 0 0 0 0 0 0 0 0 0 0 0 0 0 0 0 0 0 0 0 0 0 0 0 0 0 0 0 0 0 0 0 0 0 0 0 0 0 0 0
0 0 0 0 0 0 0 0 0 0 0 0 0 0 0 0 0 0 0 0 0 0 0 0 0 0 0 0 0 0 0 0 0 0 0 0 0 0 0 0 0 0 0
0 0 0 0 0 0 0 0 0 0 0 0 0 0 0 0 0 0 0 0 0 0 0 0 0 0 0 0 0 0 0 0 0 0 0 0 0 0 0 0 0 0 0
0 0 0 0 0 0 0 0 0 0 0 0 0 0 0 0 0 0 0 0 0 0 0 0 0 0 0 0 0 0 0 0 0 -0 0 0 0 0 0 0 0 0 0
0 0 0 0 0 0 0 0 0 0 0 0 0 0 0 0 0 0 0 0 0 0 0 0 0 0 0 0 0 0 0 0 0 -0 0 0 0 0 0 0 0 0 0
0 0 0 0 0 0 0 0 0 0 0 0 0 0 0 0 0 0 0 0 0 0 0 0 0 0 0 0 0 0 0 0 -0 -0 0 0 0 0 0 0 0 0 0
0 0 0 0 0 0 0 0 0 0 0 0 0 0 0 0 0 0 0 0 0 0 0 0 0 0 0 0 0 0 0 0 0 -0 0 0 0 0 0 0 0 0 0
0 0 0 0 0 0 0 0 0 0 0 0 0 0 0 0 0 0 0 0 0 0 0 0 0 0 0 0 0 0 0 0 0 0 0 0 0 0 0 0 0 0 0
0 0 0 0 0 0 0 0 0 0 0 0 0 0 0 0 0 0 0 0 0 -0 -0 -0 -0 -0 0 0 0 0 0 0 0 0 0 0 0 0 0 0 0 0 0
0 0 0 0 0 0 0 0 0 0 0 0 0 0 0 0 0 0 0 0 0 0 0 0 0 0 0 0 0 0 0 0 0 0 0 0 0 0 0 0 0 0 1
0 0 0 0 0 0 0 0 0 0 0 0 0 0 0 0 0 0 0 0 0 0 0 0 0 0 0 0 0 0 0 0 0 0 0 0 0 0 0 0 0 0 1
0 0 0 0 0 0 0 0 0 0 0 0 0 0 0 0 0 0 0 0 0 0 0 0 0 0 0 0 0 0 0 0 0 0 0 0 0 0 0 0 0 0 0
0 0 0 0 0 0 0 0 0 0 0 0 0 0 0 0 0 0 0 0 0 0 0 0 0 0 0 0 0 0 0 0 0 0 0 0 0 0 0 0 0 0 0
0 0 0 0 0 0 0 0 0 0 0 0 0 0 0 0 0 0 0 0 0 0 0 0 0 0 0 0 0 0 0 0 0 0 0 0 0 0 0 0 0 0 0
0 0 0 0 0 0 0 0 0 0 0 0 0 0 0 0 0 0 0 0 0 0 0 0 0 0 0 0 0 0 0 0 0 0 0 0 0 0 0 0 0 0 0
0 0 0 0 0 0 0 0 0 0 0 0 0 0 0 0 0 0 0 0 0 0 0 0 0 0 0 0 0 0 0 0 0 0 0 0 0 0 0 0 0 0 0
0 0 0 0 0 0 0 0 0 0 0 0 0 0 0 0 0 0 0 0 0 0 0 0 0 0 0 0 0 0 0 0 0 0 0 0 0 0 0 0 0 0 0
0 0 0 0 0 0 0 0 0 0 0 0 0 0 0 0 0 0 0 0 0 0 0 0 0 0 0 0 0 0 0 0 0 0 0 0 0 0 0 0 0 0 0
0 0 0 0 0 0 0 0 0 0 0 0 0 0 0 0 0 0 0 0 0 0 0 0 0 0 0 0 0 0 0 0 0 0 0 0 0 0 0 0 0 0 0
0 0 0 0 0 0 0 0 0 0 0 0 0 0 0 0 0 0 0 0 0 0 0 0 0 0 0 0 0 0 0 0 0 0 0 0 0 0 0 0 0 0 0
Wind_Speed
5 6 14 16 17 18 19 19 20 21 22 22 23 23 24 24 24 25 25 25 26 26 26 27 27 27 27 27 27 27 27 28 28 28 28 27 24 24 23 22 20 12 16
4 7 15 15 16 17 18 19 19 20 21 21 22 23 23 23 23 24 24 25 25 25 26 26 26 27 27 27 27 27 27 28 28 28 28 22 23 25 24 23 23 15 20
5 8 11 14 15 16 17 18 19 20 20 21 21 22 22 22 23 23 23 24 24 24 25 25 26 26 26 27 27 27 27 27 28 28 25 14 15 23 24 24 24 24 23
7 8 9 13 14 16 17 17 18 19 19 20 21 21 22 22 22 22 23 23 23 23 24 24 24 25 26 26 27 27 27 27 27 27 15 14 13 21 24 24 24 24 24
7 8 8 13 14 15 16 17 17 18 19 19 20 21 21 21 22 22 22 23 23 23 23 23 24 24 24 25 26 26 27 27 27 21 14 13 11 19 23 23 23 24 24
7 7 7 11 12 14 15 15 16 17 18 19 19 20 21 21 21 21 22 22 23 23 23 24 24 24 24 24 25 25 26 26 23 13 13 13 10 19 23 22 23 24 24
6 5 6 9 10 11 13 15 15 16 17 18 18 20 20 20 20 21 21 22 23 23 24 24 24 24 24 24 24 24 24 25 17 13 13 11 12 23 23 22 22 24 25
5 5 5 8 9 9 10 13 14 14 16 17 17 19 20 20 20 21 21 22 23 23 24 24 24 24 25 25 25 24 24 23 17 15 13 11 18 24 23 22 23 24 24
5 5 4 5 6 9 9 10 12 13 15 16 17 19 20 20 21 21 22 23 23 24 24 25 25 25 26 25 25 24 24 25 14 9 14 11 21 25 24 24 24 24 24
5 5 5 5 5 4 5 9 11 12 14 16 17 19 19 19 19 20 20 22 24 24 25 25 25 26 26 25 25 25 26 20 9 11 9 13 25 26 26 25 25 25 25
6 5 5 5 4 4 4 8 8 10 12 13 12 17 15 7 7 10 18 23 24 25 25 25 26 27 26 23 25 26 21 7 10 9 9 19 26 27 27 27 27 26 26
6 5 5 4 4 4 5 4 3 4 5 5 4 6 5 6 7 12 18 22 24 25 24 25 27 24 19 10 15 20 8 10 9 8 11 26 28 29 29 29 28 27 27
7 5 5 3 3 3 3 3 2 2 2 4 5 5 5 5 5 6 5 9 10 15 10 14 14 10 10 10 10 10 10 9 7 8 12 28 30 30 30 30 30 29 28
6 5 4 3 3 3 2 3 2 2 2 3 3 4 3 3 4 4 4 5 5 5 6 6 6 9 10 11 12 12 12 10 9 9 12 28 31 32 32 32 31 30 29
7 6 4 2 3 2 1 2 3 2 2 3 3 3 4 3 4 4 4 5 5 5 5 6 7 8 9 10 10 13 13 14 13 13 11 26 32 33 33 33 32 32 30
7 6 4 2 2 1 1 2 2 2 2 2 2 3 4 3 4 4 5 5 5 5 5 6 8 8 7 7 9 11 12 13 12 14 13 18 29 33 34 34 33 32 31
8 7 6 2 1 1 2 2 2 2 2 2 2 3 3 4 4 4 5 5 5 5 6 6 7 6 8 9 9 10 11 11 13 15 16 14 15 26 32 34 33 32 31
8 7 5 2 0 1 2 2 3 2 2 2 1 2 3 4 4 4 4 5 6 5 5 6 6 5 7 7 8 8 10 10 13 15 15 16 14 15 21 31 33 32 30
8 8 6 4 2 0 2 3 3 2 2 2 1 2 2 4 4 4 4 5 6 5 5 8 6 6 8 8 9 9 8 9 11 16 17 18 17 17 15 23 31 31 29
8 7 6 5 3 1 1 2 2 2 3 2 2 2 3 3 4 4 5 6 6 5 5 6 8 8 7 8 12 12 9 10 11 12 15 15 15 19 18 18 15 17 25
8 8 6 4 3 1 0 1 2 2 3 3 3 3 3 4 4 5 5 5 5 5 7 8 8 9 8 6 8 11 11 10 11 11 10 12 16 19 18 17 11 9 9
10 9 7 6 3 2 1 1 2 3 4 4 3 2 3 4 5 6 5 5 6 6 7 8 7 7 9 7 8 13 13 12 9 10 10 13 15 13 16 18 14 12 9
10 9 7 6 4 3 2 1 3 3 3 3 3 3 4 5 5 5 6 6 6 6 6 8 7 8 10 10 6 7 10 13 15 11 10 12 12 12 13 13 15 12 11
9 8 8 6 5 4 2 2 2 3 4 4 3 4 5 5 5 5 6 6 6 6 7 8 8 7 9 11 9 6 8 10 12 15 11 8 12 13 13 13 13 13 11
10 9 8 7 6 5 4 3 4 4 3 3 4 5 5 4 5 6 6 5 6 6 7 8 8 8 7 9 10 10 11 10 10 10 15 15 12 10 11 12 12 11 12
10 9 7 7 6 5 5 5 5 4 5 5 6 5 4 4 4 6 6 5 6 6 7 7 7 9 9 9 9 9 10 10 11 10 12 14 14 13 12 11 11 11 10
Wind_Direction
25 21 18 17 21 23 25 26 27 27 27 25 24 23 22 20 19 18 16 14 13 11 9 8 6 4 3 2 360 357 355 353 352 350 343 338 342 342 345 349 347 338 338
32 29 23 21 24 26 27 28 28 27 26 24 22 21 20 19 17 16 15 13 10 9 7 6 4 2 360 358 356 354 352 351 349 347 341 341 343 340 344 347 345 340 338
54 44 25 23 28 28 29 29 27 25 23 22 20 18 17 16 15 14 13 11 9 7 4 3 1 358 357 355 353 350 348 347 346 344 342 341 339 335 338 343 342 340 340
66 54 30 29 32 32 30 28 26 24 21 19 17 15 13 12 12 10 11 9 6 4 2 0 358 355 353 351 349 346 345 343 343 342 340 334 333 330 332 336 338 338 337
77 70 37 35 35 33 30 28 25 22 20 17 15 13 11 9 8 8 7 6 3 1 359 357 355 352 351 348 345 343 341 340 340 341 330 326 324 324 326 330 333 334 334
82 82 55 39 37 34 30 26 23 20 17 14 12 10 8 6 6 5 5 3 360 357 356 354 352 350 348 345 342 339 337 336 338 331 324 318 319 318 319 325 329 329 328
89 92 80 49 38 33 29 24 20 17 13 11 10 8 5 4 3 2 2 -0 357 354 353 351 348 347 345 342 339 337 335 334 332 326 317 312 313 314 315 321 325 324 323
93 85 84 56 39 29 27 21 14 11 9 7 7 6 3 2 0 360 0 357 354 353 351 349 346 345 343 340 338 336 335 333 327 317 312 310 312 312 313 317 319 319 318
90 76 69 61 35 16 16 20 5 7 5 4 5 4 2 1 359 357 358 353 351 351 349 346 345 344 341 340 338 337 335 330 330 314 315 316 308 308 310 313 313 313 313
111 85 55 55 43 20 359 4 2 4 4 3 4 2 3 1 357 353 354 349 349 349 347 345 346 343 341 341 339 336 334 334 323 319 312 305 305 306 307 308 308 308 307
122 101 75 48 32 15 353 2 2 0 2 2 1 360 1 353 347 347 346 347 348 347 346 345 344 343 344 340 336 333 335 324 318 312 305 302 304 305 305 304 303 303 302
114 97 85 61 32 21 1 356 346 355 0 352 359 357 353 351 342 350 344 344 345 343 344 342 341 344 341 332 331 333 324 317 314 309 308 308 306 304 302 300 299 298 297
112 99 98 90 58 38 354 345 336 336 357 343 354 354 356 350 341 344 340 337 339 338 340 336 337 335 330 328 325 322 319 319 313 309 308 306 303 301 299 296 295 294 292
119 116 103 101 87 57 5 329 316 340 354 330 341 350 359 342 338 338 330 328 330 326 328 330 328 323 322 322 321 318 319 318 313 309 302 303 302 300 297 294 291 290 288
137 130 122 119 90 63 336 309 339 333 337 317 328 349 359 347 336 331 325 323 320 320 326 325 316 315 317 316 315 317 316 313 309 305 305 303 302 299 296 292 289 286 284
144 135 115 94 78 33 353 341 315 314 303 310 329 343 350 354 335 326 321 316 313 319 319 311 310 311 308 307 309 311 309 306 304 305 303 303 300 297 294 291 287 284 281
146 137 129 144 101 19 2 330 303 278 292 306 316 336 348 356 330 325 313 310 309 312 310 306 305 302 306 310 307 304 302 301 301 301 300 297 295 294 291 288 285 281 277
146 142 137 156 88 15 347 300 276 275 301 293 313 328 346 342 325 320 309 306 304 308 306 303 298 306 305 301 299 298 298 297 298 299 298 296 294 289 287 285 283 279 277
156 147 150 149 185 280 302 284 291 302 309 305 319 318 324 321 317 316 304 296 305 306 300 305 314 303 301 301 300 297 297 299 298 298 296 295 293 289 283 280 278 276 274
151 143 154 161 175 170 292 315 313 316 315 300 289 286 310 308 313 312 294 297 304 301 300 301 301 298 296 299 305 306 298 294 295 293 295 299 302 300 292 281 275 274 272
153 157 164 167 167 156 157 323 307 307 298 289 275 284 305 307 305 296 294 295 297 297 297 298 299 303 302 300 305 306 300 289 287 292 294 303 303 303 299 294 287 279 274
168 167 168 171 161 168 161 245 254 265 265 264 262 296 304 297 290 296 293 293 292 294 296 297 301 301 305 310 307 309 308 306 296 302 299 295 297 299 301 299 297 292 285
174 169 168 150 165 192 183 240 276 283 286 297 321 314 291 286 285 286 286 288 290 292 294 297 300 306 308 307 294 297 304 306 310 299 292 292 295 298 296 294 290 287 281
168 148 145 153 182 196 195 232 270 281 283 287 287 278 283 289 294 292 287 290 293 291 291 298 311 304 303 307 305 288 279 288 298 305 305 292 295 297 300 301 303 299 291
151 144 148 161 189 196 202 228 249 264 273 283 287 287 293 295 293 291 289 296 294 291 291 296 300 299 299 298 304 305 301 296 286 290 301 306 305 300 300 301 300 296 290
140 142 153 174 195 194 205 226 238 258 277 290 293 295 295 291 288 291 297 298 294 291 292 294 298 300 299 296 301 302 301 300 301 296 293 297 300 301 300 298 295 292 288